Regional Weather Roundup
Issued by NWS

Home | Current Version | Previous Version | Graphics & Text | Print | Product List | Glossary On
Versions: 1 2 3 4 5 6 7 8 9 10 11 12 13 14 15 16 17 18 19 20 21 22 23 24 25 26 27 28 29 30 31 32 33 34 35 36 37 38 39 40 41 42 43 44 45 46 47 48 49 50
000
ASUS43 KBIS 221610
RWRND
NORTH DAKOTA REGIONAL WEATHER ROUNDUP
NATIONAL WEATHER SERVICE EASTERN NORTH DAKOTA/GRAND FORKS ND
1100 AM CDT SUN APR 22 2018

  NOTE: "FAIR" INDICATES FEW OR NO CLOUDS BELOW 12,000 FEET WITH NO
  SIGNIFICANT WEATHER AND/OR OBSTRUCTIONS TO VISIBILITY.

NDZ001>003-009>011-017-221700-
...NORTHWEST NORTH DAKOTA...

CITY           SKY/WX    TMP DP  RH WIND       PRES   REMARKS
WILLISTON      FAIR      57  31  37 W7        30.14R
MINOT          FAIR      58  34  40 NW12      30.11R
MINOT AFB      FAIR      56  33  42 NW12      30.10R
$$

NDZ018>021-031>035-040>046-221700-
...SOUTHWEST NORTH DAKOTA...

CITY           SKY/WX    TMP DP  RH WIND       PRES   REMARKS
BISMARCK       FAIR      55  38  52 S14       30.16F
DICKINSON      FAIR      58  28  32 NE8       30.12R
GARRISON         N/A     50  39  66 SW5       30.13S
HETTINGER      FAIR      53  38  56 CALM      30.15F
$$

NDZ004>008-012>016-024-026-027-054-221700-
...NORTHEAST NORTH DAKOTA...

CITY           SKY/WX    TMP DP  RH WIND       PRES   REMARKS
GRAND FORKS    FAIR      51  40  65 S22       30.21R
GRAND FORKS AF FAIR      53  40  61 S17       30.20R
DEVILS LAKE    FAIR      49  36  61 SW12      30.16R
$$

NDZ022-023-025-028>030-036>039-047>053-221700-
...SOUTHEAST NORTH DAKOTA...

CITY           SKY/WX    TMP DP  RH WIND       PRES   REMARKS
JAMESTOWN      FAIR      53  38  56 SW16      30.20S
FARGO          FAIR      54  38  54 S13       30.24F
WAHPETON       FAIR      50  37  62 S10       30.28F
$$



USA.gov is the U.S. government's official web portal to all federal, state and local government web resources and services.